SAA230 KJFK-FAOR

Flight info

Callsign SAA230
Flight time N/A
Altitude 31000
Route WAVEY DCT OWENZ Y481 POPPN DCT ISLES DCT KAYYT/M081F310 DCT 37N060W/M081F330 33N050W 26N040W 23N035W DCT TEGTO/N0477F350 DCT EVKAS DCT MOGSA UA602 TURED UG853 DEMAR UR991 ARLEM/N0476F370 DCT 03S005W 10S000E 15S005E DCT NEVEP/N0463F390 UM431 VEDRY UP301 TETUS UN181 PEDIL UQ19 AVAGO AVAGO1D
Aircraft A346/H-SDE2E3FGHIJ3J4J5M1RWXY/LB1D1

Departure

Time 2026-05-08 07:12
Airport John F. Kennedy International Airport (KJFK)

Arrival

Time N/A
Airport O.R. Tambo International Airport (FAOR)
Time Latitude Longitude Altitude Speed Heading
2026-05-08 06:11 40.64072 -73.78108 29 ft 0 kts 239°
2026-05-08 06:57 40.64073 -73.78105 28 ft 2 kts 239°
2026-05-08 06:57 40.64085 -73.78079 28 ft 3 kts 239°
2026-05-08 06:58 40.64097 -73.78052 26 ft 3 kts 239°
2026-05-08 06:58 40.64108 -73.78031 26 ft 3 kts 221°
2026-05-08 06:58 40.64120 -73.78021 18 ft 3 kts 186°
2026-05-08 06:58 40.64129 -73.78023 11 ft 3 kts 146°
2026-05-08 06:59 40.64147 -73.78042 13 ft 3 kts 139°
2026-05-08 06:59 40.64165 -73.78061 33 ft 3 kts 149°
2026-05-08 06:59 40.64172 -73.78066 27 ft 0 kts 151°
2026-05-08 07:02 40.64160 -73.78057 28 ft 5 kts 151°
2026-05-08 07:03 40.64095 -73.78010 28 ft 13 kts 151°
2026-05-08 07:03 40.64014 -73.77951 29 ft 13 kts 151°
2026-05-08 07:03 40.63941 -73.77871 29 ft 14 kts 136°
2026-05-08 07:03 40.63870 -73.77781 28 ft 14 kts 136°
2026-05-08 07:04 40.63820 -73.77725 28 ft 0 kts 143°
2026-05-08 07:04 40.63800 -73.77705 28 ft 6 kts 143°
2026-05-08 07:04 40.63757 -73.77675 28 ft 7 kts 168°
2026-05-08 07:04 40.63702 -73.77682 28 ft 9 kts 190°
2026-05-08 07:05 40.63628 -73.77732 28 ft 13 kts 212°
2026-05-08 07:05 40.63549 -73.77796 28 ft 13 kts 210°
2026-05-08 07:05 40.63472 -73.77855 29 ft 11 kts 210°
2026-05-08 07:05 40.63408 -73.77904 29 ft 11 kts 210°
2026-05-08 07:06 40.63350 -73.77889 29 ft 10 kts 127°
2026-05-08 07:06 40.63312 -73.77811 31 ft 9 kts 122°
2026-05-08 07:06 40.63280 -73.77743 32 ft 9 kts 122°
2026-05-08 07:06 40.63247 -73.77672 32 ft 9 kts 122°
2026-05-08 07:07 40.63209 -73.77589 31 ft 11 kts 121°
2026-05-08 07:07 40.63166 -73.77493 30 ft 13 kts 121°
2026-05-08 07:07 40.63117 -73.77385 29 ft 14 kts 121°
2026-05-08 07:07 40.63066 -73.77271 29 ft 14 kts 121°
2026-05-08 07:08 40.63015 -73.77158 29 ft 14 kts 121°
2026-05-08 07:08 40.62976 -73.77079 29 ft 5 kts 146°
2026-05-08 07:08 40.62942 -73.77090 29 ft 6 kts 210°
2026-05-08 07:08 40.62907 -73.77118 30 ft 6 kts 210°
2026-05-08 07:09 40.62872 -73.77144 30 ft 6 kts 210°
2026-05-08 07:09 40.62833 -73.77175 30 ft 7 kts 210°
2026-05-08 07:09 40.62823 -73.77223 30 ft 7 kts 298°
2026-05-08 07:09 40.62846 -73.77279 30 ft 5 kts 298°
2026-05-08 07:10 40.62848 -73.77285 30 ft 0 kts 298°
2026-05-08 07:11 40.62871 -73.77340 31 ft 26 kts 298°
2026-05-08 07:11 40.63085 -73.77817 34 ft 86 kts 301°
2026-05-08 07:11 40.63536 -73.78789 31 ft 139 kts 300°
2026-05-08 07:12 40.64182 -73.80228 33 ft 184 kts 302°
2026-05-08 07:12 40.64964 -73.81905 328 ft 199 kts 304°
2026-05-08 07:12 40.65209 -73.82433 499 ft 199 kts 302°
2026-05-08 07:12 40.65301 -73.85569 1628 ft 202 kts 242°
2026-05-08 07:13 40.64109 -73.86980 2036 ft 213 kts 205°
2026-05-08 07:13 40.62503 -73.87863 2343 ft 225 kts 209°
2026-05-08 07:13 40.61084 -73.88960 2586 ft 236 kts 217°
2026-05-08 07:13 40.59498 -73.90388 2829 ft 253 kts 216°
2026-05-08 07:14 40.57630 -73.91997 3223 ft 266 kts 214°
2026-05-08 07:14 40.56468 -73.92943 3540 ft 270 kts 210°
2026-05-08 07:14 40.54545 -73.93546 4108 ft 277 kts 175°
2026-05-08 07:14 40.52663 -73.92735 4541 ft 289 kts 147°
2026-05-08 07:15 40.51231 -73.90681 5031 ft 295 kts 122°
2026-05-08 07:15 40.50153 -73.88263 5736 ft 295 kts 122°
2026-05-08 07:15 40.49037 -73.85919 6304 ft 298 kts 125°
2026-05-08 07:15 40.47839 -73.83669 6813 ft 302 kts 128°
2026-05-08 07:16 40.46544 -73.81428 7310 ft 306 kts 130°
2026-05-08 07:16 40.45204 -73.79221 7802 ft 309 kts 131°
2026-05-08 07:16 40.43826 -73.77019 8293 ft 312 kts 132°
2026-05-08 07:16 40.42424 -73.74812 8763 ft 315 kts 133°
2026-05-08 07:17 40.40988 -73.72572 9262 ft 319 kts 133°
2026-05-08 07:17 40.39537 -73.70319 9756 ft 323 kts 133°
2026-05-08 07:17 40.38059 -73.68029 10222 ft 326 kts 133°
2026-05-08 07:17 40.36552 -73.65700 10488 ft 337 kts 133°
2026-05-08 07:18 40.34989 -73.63289 10712 ft 349 kts 133°
2026-05-08 07:18 40.33394 -73.60830 10931 ft 361 kts 133°
2026-05-08 07:18 40.31723 -73.58255 11162 ft 373 kts 133°
2026-05-08 07:18 40.30000 -73.55599 11382 ft 385 kts 133°
2026-05-08 07:19 40.28230 -73.52874 11599 ft 397 kts 134°
2026-05-08 07:19 40.26416 -73.50082 11925 ft 404 kts 134°
2026-05-08 07:19 40.24584 -73.47260 12426 ft 407 kts 134°
2026-05-08 07:19 40.22729 -73.44405 12935 ft 411 kts 134°
2026-05-08 07:20 40.20860 -73.41533 13402 ft 415 kts 135°
2026-05-08 07:20 40.18968 -73.38630 13838 ft 419 kts 135°
2026-05-08 07:20 40.17052 -73.35695 14226 ft 423 kts 135°
2026-05-08 07:20 40.15126 -73.32748 14685 ft 426 kts 136°
2026-05-08 07:21 40.13183 -73.29777 15109 ft 429 kts 136°
2026-05-08 07:21 40.11890 -73.27801 15393 ft 431 kts 136°
2026-05-08 07:21 40.09250 -73.23774 15955 ft 435 kts 137°
2026-05-08 07:21 40.07272 -73.20761 16391 ft 438 kts 137°
2026-05-08 07:22 40.05278 -73.17726 16832 ft 440 kts 138°
2026-05-08 07:22 40.03830 -73.15524 17143 ft 442 kts 138°
2026-05-08 07:22 40.01732 -73.12337 17586 ft 445 kts 139°
2026-05-08 07:22 39.98867 -73.07992 18157 ft 448 kts 139°
2026-05-08 07:23 39.96817 -73.04887 18513 ft 451 kts 139°
2026-05-08 07:23 39.95419 -73.02774 18753 ft 453 kts 139°
2026-05-08 07:23 39.93295 -72.99565 19103 ft 456 kts 140°
2026-05-08 07:23 39.90790 -72.95784 19502 ft 459 kts 140°
2026-05-08 07:24 39.88593 -72.92469 19860 ft 462 kts 140°
2026-05-08 07:24 39.86180 -72.88832 20238 ft 466 kts 140°
2026-05-08 07:24 39.83905 -72.85263 20575 ft 474 kts 135°
2026-05-08 07:24 39.82002 -72.81361 20886 ft 488 kts 125°
2026-05-08 07:25 39.80557 -72.77113 21197 ft 499 kts 117°
2026-05-08 07:25 39.79297 -72.72447 21559 ft 503 kts 114°
2026-05-08 07:25 39.76830 -72.62871 22261 ft 509 kts 115°
2026-05-08 07:26 39.75549 -72.58041 22600 ft 512 kts 115°
2026-05-08 07:26 39.74344 -72.53574 22905 ft 514 kts 115°
2026-05-08 07:26 39.73119 -72.49078 23207 ft 517 kts 115°
2026-05-08 07:26 39.71915 -72.44682 23493 ft 520 kts 115°
2026-05-08 07:27 39.70690 -72.40219 23729 ft 522 kts 115°
2026-05-08 07:27 39.69463 -72.35756 23983 ft 524 kts 115°
2026-05-08 07:27 39.68225 -72.31255 24255 ft 526 kts 115°
2026-05-08 07:27 39.66948 -72.26627 24513 ft 528 kts 115°
2026-05-08 07:28 39.65660 -72.21962 24764 ft 531 kts 115°
2026-05-08 07:28 39.64386 -72.17297 25007 ft 534 kts 114°
2026-05-08 07:28 39.63173 -72.12516 25255 ft 537 kts 113°
2026-05-08 07:28 39.62001 -72.07737 25501 ft 539 kts 113°
2026-05-08 07:29 39.60839 -72.02984 25742 ft 541 kts 113°
2026-05-08 07:29 39.59644 -71.98133 25985 ft 543 kts 113°
2026-05-08 07:29 39.58486 -71.93474 26208 ft 545 kts 113°
2026-05-08 07:29 39.57218 -71.88409 26451 ft 547 kts 114°
2026-05-08 07:30 39.55831 -71.82899 26704 ft 549 kts 114°
2026-05-08 07:30 39.54583 -71.77953 26947 ft 551 kts 114°
2026-05-08 07:30 39.53331 -71.72999 27203 ft 553 kts 114°
2026-05-08 07:30 39.51994 -71.67720 27565 ft 552 kts 114°
2026-05-08 07:31 39.50698 -71.62614 27917 ft 551 kts 114°
2026-05-08 07:31 39.49382 -71.57441 28243 ft 551 kts 114°
2026-05-08 07:31 39.48121 -71.52497 28541 ft 551 kts 114°
2026-05-08 07:31 39.46769 -71.47214 28859 ft 551 kts 114°
2026-05-08 07:32 39.45410 -71.41914 29172 ft 551 kts 114°
2026-05-08 07:32 39.44090 -71.36771 29447 ft 552 kts 114°
2026-05-08 07:32 39.42947 -71.31826 29627 ft 557 kts 110°
2026-05-08 07:32 39.41995 -71.26514 29820 ft 562 kts 105°
2026-05-08 07:33 39.41224 -71.20852 30058 ft 564 kts 104°
2026-05-08 07:33 39.40566 -71.15627 30265 ft 564 kts 103°
2026-05-08 07:33 39.39900 -71.10301 30478 ft 565 kts 103°
2026-05-08 07:33 39.39215 -71.04931 30646 ft 566 kts 104°
2026-05-08 07:34 39.38537 -70.99710 30816 ft 567 kts 104°
2026-05-08 07:34 39.37142 -70.89183 30875 ft 568 kts 104°
2026-05-08 07:35 39.35661 -70.78140 30871 ft 568 kts 104°
2026-05-08 07:35 39.34196 -70.67306 30866 ft 568 kts 104°
2026-05-08 07:36 39.32784 -70.56936 30869 ft 567 kts 104°
2026-05-08 07:36 39.31376 -70.46663 30874 ft 567 kts 104°
2026-05-08 07:37 39.29971 -70.36481 30860 ft 566 kts 104°
2026-05-08 07:37 39.28408 -70.25236 30857 ft 565 kts 105°
2026-05-08 07:38 39.26990 -70.15104 30855 ft 564 kts 105°
2026-05-08 07:38 39.25554 -70.04914 30852 ft 564 kts 105°
2026-05-08 07:39 39.24092 -69.94601 30853 ft 563 kts 105°
2026-05-08 07:39 39.22589 -69.84076 30850 ft 562 kts 105°
2026-05-08 07:40 39.21104 -69.73743 30846 ft 561 kts 105°
2026-05-08 07:40 39.19569 -69.63133 30849 ft 560 kts 105°
2026-05-08 07:41 39.18129 -69.53244 30839 ft 559 kts 105°
2026-05-08 07:41 39.16624 -69.42973 30845 ft 558 kts 105°
2026-05-08 07:42 39.15107 -69.32685 30836 ft 557 kts 105°
2026-05-08 07:42 39.13652 -69.22886 30832 ft 556 kts 105°
2026-05-08 07:43 39.12163 -69.12911 30828 ft 555 kts 105°
2026-05-08 07:43 39.10617 -69.02625 30821 ft 554 kts 106°
2026-05-08 07:44 39.09013 -68.92021 30819 ft 553 kts 106°
2026-05-08 07:44 39.07465 -68.81848 30822 ft 552 kts 106°
2026-05-08 07:45 39.05924 -68.71777 30816 ft 551 kts 106°
2026-05-08 07:45 39.04418 -68.62001 30814 ft 550 kts 106°
2026-05-08 07:46 39.02913 -68.52280 30812 ft 549 kts 106°
2026-05-08 07:46 39.01395 -68.42541 30814 ft 549 kts 106°
2026-05-08 07:47 38.99867 -68.32792 30810 ft 548 kts 106°
2026-05-08 07:47 38.98288 -68.22774 30810 ft 547 kts 106°
2026-05-08 07:48 38.96738 -68.13000 30810 ft 547 kts 106°
2026-05-08 07:48 38.95146 -68.03013 30805 ft 546 kts 107°
2026-05-08 07:49 38.93548 -67.93055 30800 ft 546 kts 107°
2026-05-08 07:49 38.91944 -67.83113 30800 ft 546 kts 107°
2026-05-08 07:50 38.90252 -67.72700 30793 ft 546 kts 107°
2026-05-08 07:50 38.88679 -67.63082 30799 ft 545 kts 107°
2026-05-08 07:51 38.86917 -67.53266 30794 ft 542 kts 110°
2026-05-08 07:51 38.84913 -67.43741 30786 ft 542 kts 111°
2026-05-08 07:52 38.82888 -67.34254 30787 ft 542 kts 111°
2026-05-08 07:52 38.80670 -67.23859 30778 ft 542 kts 111°
2026-05-08 07:53 38.78582 -67.14092 30771 ft 542 kts 111°
2026-05-08 07:53 38.76496 -67.04374 30771 ft 542 kts 111°
2026-05-08 07:54 38.74426 -66.94767 30770 ft 542 kts 111°
2026-05-08 07:54 38.72379 -66.85315 30770 ft 541 kts 112°
2026-05-08 07:55 38.70316 -66.75827 30765 ft 541 kts 112°
2026-05-08 07:55 38.68256 -66.66397 30757 ft 541 kts 112°
2026-05-08 07:56 38.66178 -66.56923 30750 ft 540 kts 112°
2026-05-08 07:56 38.64107 -66.47522 30745 ft 540 kts 112°
2026-05-08 07:57 38.61990 -66.37953 30750 ft 540 kts 112°
2026-05-08 07:57 38.59911 -66.28588 30746 ft 539 kts 113°
2026-05-08 07:58 38.57847 -66.19333 30745 ft 539 kts 113°
2026-05-08 07:58 38.55775 -66.10081 30742 ft 538 kts 113°
2026-05-08 07:59 38.53685 -66.00791 30739 ft 537 kts 114°
2026-05-08 07:59 38.51603 -65.91580 30741 ft 537 kts 114°
2026-05-08 08:00 38.49513 -65.82366 30740 ft 537 kts 114°
2026-05-08 08:00 38.47413 -65.73144 30736 ft 537 kts 114°
2026-05-08 08:01 38.45314 -65.63959 30732 ft 537 kts 114°
2026-05-08 08:01 38.43221 -65.54841 30742 ft 537 kts 114°
2026-05-08 08:02 38.41100 -65.45637 30718 ft 536 kts 114°
2026-05-08 08:02 38.38979 -65.36468 30767 ft 536 kts 114°
2026-05-08 08:03 38.36851 -65.27294 30706 ft 535 kts 113°
2026-05-08 08:03 38.34728 -65.18163 30717 ft 533 kts 113°
2026-05-08 08:04 38.32571 -65.09191 30695 ft 525 kts 119°
2026-05-08 08:04 38.30939 -65.04965 30696 ft 510 kts 130°
2026-05-08 08:04 38.29015 -65.01261 30702 ft 505 kts 133°
2026-05-08 08:05 38.24877 -64.94001 30709 ft 503 kts 135°
2026-05-08 08:05 38.20680 -64.86835 30695 ft 503 kts 134°
2026-05-08 08:06 38.16779 -64.79222 30684 ft 511 kts 129°
2026-05-08 08:06 38.13035 -64.71512 30677 ft 510 kts 129°
2026-05-08 08:07 38.09188 -64.63865 30673 ft 511 kts 130°
2026-05-08 08:07 38.05309 -64.56283 30668 ft 512 kts 130°
2026-05-08 08:08 38.01506 -64.48548 30666 ft 518 kts 124°
2026-05-08 08:08 37.98608 -64.39941 30668 ft 530 kts 113°
2026-05-08 08:09 37.96454 -64.31005 30672 ft 530 kts 111°
2026-05-08 08:09 37.94322 -64.21985 30673 ft 531 kts 111°
2026-05-08 08:10 37.92134 -64.12926 30671 ft 534 kts 111°
2026-05-08 08:10 37.89930 -64.03914 30676 ft 536 kts 111°
2026-05-08 08:11 37.87692 -63.94820 30678 ft 538 kts 111°
2026-05-08 08:11 37.85440 -63.85706 30683 ft 540 kts 111°
2026-05-08 08:12 37.83178 -63.76583 30684 ft 541 kts 111°
2026-05-08 08:12 37.80924 -63.67525 30693 ft 542 kts 111°
2026-05-08 08:13 37.78611 -63.58267 30699 ft 543 kts 111°
2026-05-08 08:13 37.76325 -63.49151 30701 ft 543 kts 111°
2026-05-08 08:14 37.74012 -63.39960 30710 ft 543 kts 111°
2026-05-08 08:14 37.71662 -63.30657 30711 ft 543 kts 111°
2026-05-08 08:15 37.69264 -63.21198 30722 ft 543 kts 111°
2026-05-08 08:15 37.66909 -63.11939 30734 ft 543 kts 111°
2026-05-08 08:16 37.64973 -63.04357 30733 ft 542 kts 111°
2026-05-08 08:16 37.62632 -62.95219 30734 ft 542 kts 111°
2026-05-08 08:17 37.60294 -62.86131 30744 ft 542 kts 111°
2026-05-08 08:17 37.57937 -62.77010 30748 ft 542 kts 111°
2026-05-08 08:18 37.55563 -62.67848 30750 ft 542 kts 111°
2026-05-08 08:18 37.53194 -62.58736 30757 ft 542 kts 111°
2026-05-08 08:19 37.50815 -62.49617 30760 ft 542 kts 111°
2026-05-08 08:19 37.48432 -62.40513 30772 ft 542 kts 111°
2026-05-08 08:20 37.46005 -62.31279 30774 ft 542 kts 111°
2026-05-08 08:20 37.43601 -62.22162 30778 ft 542 kts 111°
2026-05-08 08:21 37.41199 -62.13087 30785 ft 542 kts 111°
2026-05-08 08:21 37.38786 -62.03999 30786 ft 541 kts 111°
2026-05-08 08:22 37.36383 -61.94986 30788 ft 541 kts 111°
2026-05-08 08:22 37.33966 -61.85952 30796 ft 540 kts 112°
2026-05-08 08:23 37.31562 -61.76996 30801 ft 540 kts 112°
2026-05-08 08:23 37.29133 -61.67977 30817 ft 539 kts 112°
2026-05-08 08:24 37.26701 -61.58981 30817 ft 538 kts 112°
2026-05-08 08:24 37.24269 -61.50017 30818 ft 538 kts 112°
2026-05-08 08:25 37.21848 -61.41124 30820 ft 538 kts 112°
2026-05-08 08:25 37.19418 -61.32224 30824 ft 537 kts 112°
2026-05-08 08:26 37.16951 -61.23217 30830 ft 537 kts 112°
2026-05-08 08:26 37.14505 -61.14327 30833 ft 537 kts 112°
2026-05-08 08:27 37.12061 -61.05468 30836 ft 536 kts 112°